Meteo pe oră la Dahanu

Astăzi, 10 Aprilie, Sâmbătă

Timp Temperatura Precipitaţii Vânt Presiune Umiditate
00:00 +28°C° 0 mm 2 m/s 756 mmHg 75%
01:00 +28°C° 0 mm 1 m/s 756 mmHg 76%
02:00 +28°C° 0 mm 1 m/s 755 mmHg 77%
03:00 +28°C° 0 mm 1 m/s 756 mmHg 76%
04:00 +28°C° 0 mm 1 m/s 756 mmHg 74%
05:00 +28°C° 0 mm 1 m/s 756 mmHg 69%
06:00 +29°C° 0 mm 1 m/s 756 mmHg 63%
07:00 +30°C° 0 mm 2 m/s 757 mmHg 57%
08:00 +31°C° 0 mm 2 m/s 757 mmHg 51%
09:00 +34°C° 0 mm 2 m/s 757 mmHg 46%
10:00 +35°C° 0 mm 3 m/s 757 mmHg 42%
11:00 +37°C° 0 mm 4 m/s 757 mmHg 37%
12:00 +37°C° 0 mm 4 m/s 757 mmHg 39%
13:00 +37°C° 0 mm 5 m/s 756 mmHg 40%
14:00 +36°C° 0 mm 5 m/s 756 mmHg 42%
15:00 +36°C° 0 mm 5 m/s 755 mmHg 42%
16:00 +35°C° 0 mm 5 m/s 755 mmHg 43%
17:00 +35°C° 0 mm 4 m/s 755 mmHg 43%
18:00 +34°C° 0 mm 4 m/s 755 mmHg 49%
19:00 +32°C° 0 mm 4 m/s 756 mmHg 54%
20:00 +30°C° 0 mm 3 m/s 756 mmHg 60%
21:00 +30°C° 0 mm 3 m/s 757 mmHg 63%
22:00 +29°C° 0 mm 2 m/s 757 mmHg 66%
23:00 +29°C° 0 mm 1 m/s 758 mmHg 69%

Mâine, 11 Aprilie, Duminică

Timp Temperatura Precipitaţii Vânt Presiune Umiditate
00:00 +29°C° 0 mm 1 m/s 757 mmHg 70%
01:00 +28°C° 0 mm 1 m/s 757 mmHg 72%
02:00 +28°C° 0 mm 1 m/s 757 mmHg 73%
03:00 +28°C° 0 mm 1 m/s 757 mmHg 72%
04:00 +28°C° 0 mm 1 m/s 757 mmHg 71%
05:00 +28°C° 0 mm 2 m/s 757 mmHg 70%
06:00 +29°C° 0 mm 1 m/s 757 mmHg 66%
07:00 +29°C° 0 mm 1 m/s 758 mmHg 62%
08:00 +30°C° 0 mm 1 m/s 759 mmHg 58%
09:00 +32°C° 0 mm 1 m/s 759 mmHg 50%
10:00 +35°C° 0 mm 2 m/s 758 mmHg 42%
11:00 +37°C° 0 mm 2 m/s 758 mmHg 34%
12:00 +37°C° 0 mm 3 m/s 758 mmHg 34%
13:00 +37°C° 0 mm 4 m/s 757 mmHg 33%
14:00 +37°C° 0 mm 5 m/s 756 mmHg 33%
15:00 +37°C° 0 mm 5 m/s 756 mmHg 33%
16:00 +36°C° 0 mm 5 m/s 756 mmHg 34%
17:00 +35°C° 0 mm 5 m/s 756 mmHg 34%
18:00 +34°C° 0 mm 5 m/s 756 mmHg 41%
19:00 +33°C° 0 mm 5 m/s 757 mmHg 48%
20:00 +30°C° 0 mm 4 m/s 757 mmHg 54%
21:00 +30°C° 0 mm 3 m/s 757 mmHg 57%
22:00 +30°C° 0 mm 2 m/s 758 mmHg 59%
23:00 +29°C° 0 mm 1 m/s 758 mmHg 61%

Poimâine, 12 Aprilie, Luni

Timp Temperatura Precipitaţii Vânt Presiune Umiditate
00:00 +29°C° 0 mm 1 m/s 758 mmHg 61%
01:00 +29°C° 0 mm 1 m/s 757 mmHg 60%
02:00 +29°C° 0 mm 1 m/s 757 mmHg 59%
03:00 +29°C° 0 mm 1 m/s 757 mmHg 57%
04:00 +29°C° 0 mm 1 m/s 757 mmHg 55%
05:00 +29°C° 0 mm 1 m/s 757 mmHg 53%
06:00 +30°C° 0 mm 1 m/s 758 mmHg 49%
07:00 +31°C° 0 mm 2 m/s 758 mmHg 45%
08:00 +32°C° 0 mm 2 m/s 759 mmHg 41%
09:00 +35°C° 0 mm 3 m/s 759 mmHg 37%
10:00 +36°C° 0 mm 4 m/s 759 mmHg 33%
11:00 +38°C° 0 mm 4 m/s 759 mmHg 29%
12:00 +39°C° 0 mm 5 m/s 758 mmHg 28%
13:00 +39°C° 0 mm 6 m/s 757 mmHg 28%
14:00 +39°C° 0 mm 6 m/s 757 mmHg 27%
15:00 +39°C° 0 mm 6 m/s 756 mmHg 28%
16:00 +38°C° 0 mm 6 m/s 756 mmHg 28%
17:00 +36°C° 0 mm 6 m/s 756 mmHg 28%
18:00 +35°C° 0 mm 6 m/s 756 mmHg 38%
19:00 +33°C° 0 mm 5 m/s 756 mmHg 48%
20:00 +30°C° 0 mm 5 m/s 757 mmHg 59%
21:00 +30°C° 0 mm 4 m/s 757 mmHg 61%
22:00 +30°C° 0 mm 4 m/s 757 mmHg 64%
23:00 +29°C° 0 mm 3 m/s 758 mmHg 66%

13 Aprilie, Marţi

Timp Temperatura Precipitaţii Vânt Presiune Umiditate
00:00 +29°C° 0 mm 2 m/s 757 mmHg 66%
01:00 +29°C° 0 mm 1 m/s 757 mmHg 65%
02:00 +28°C° 0 mm 1 m/s 757 mmHg 65%
03:00 +28°C° 0 mm 1 m/s 757 mmHg 65%
04:00 +28°C° 0 mm 1 m/s 757 mmHg 65%
05:00 +28°C° 0 mm 1 m/s 757 mmHg 65%
06:00 +29°C° 0 mm 1 m/s 758 mmHg 58%
07:00 +30°C° 0 mm 1 m/s 758 mmHg 52%
08:00 +31°C° 0 mm 1 m/s 759 mmHg 45%
09:00 +34°C° 0 mm 2 m/s 759 mmHg 39%
10:00 +36°C° 0 mm 3 m/s 759 mmHg 34%
11:00 +39°C° 0 mm 5 m/s 759 mmHg 28%
12:00 +39°C° 0 mm 5 m/s 758 mmHg 29%
13:00 +39°C° 0 mm 6 m/s 757 mmHg 29%
14:00 +39°C° 0 mm 6 m/s 756 mmHg 29%
15:00 +38°C° 0 mm 6 m/s 756 mmHg 29%
16:00 +38°C° 0 mm 7 m/s 755 mmHg 29%
17:00 +36°C° 0 mm 7 m/s 755 mmHg 29%
18:00 +34°C° 0 mm 6 m/s 755 mmHg 42%
19:00 +32°C° 0 mm 5 m/s 756 mmHg 54%
20:00 +30°C° 0 mm 5 m/s 756 mmHg 66%
21:00 +29°C° 0 mm 4 m/s 757 mmHg 68%
22:00 +29°C° 0 mm 3 m/s 757 mmHg 69%
23:00 +29°C° 0 mm 2 m/s 758 mmHg 71%

14 Aprilie, Miercuri

Timp Temperatura Precipitaţii Vânt Presiune Umiditate
00:00 +29°C° 0 mm 2 m/s 757 mmHg 71%
01:00 +29°C° 0 mm 1 m/s 757 mmHg 72%
02:00 +28°C° 0 mm 1 m/s 757 mmHg 72%
03:00 +28°C° 0 mm 1 m/s 757 mmHg 72%
04:00 +28°C° 0 mm 1 m/s 757 mmHg 73%
05:00 +28°C° 0 mm 1 m/s 757 mmHg 73%
06:00 +29°C° 0 mm 1 m/s 758 mmHg 66%
07:00 +30°C° 0 mm 1 m/s 758 mmHg 60%
08:00 +31°C° 0 mm 1 m/s 759 mmHg 53%
09:00 +34°C° 0 mm 2 m/s 759 mmHg 47%
10:00 +35°C° 0 mm 3 m/s 759 mmHg 41%
11:00 +37°C° 0 mm 5 m/s 759 mmHg 35%
12:00 +37°C° 0 mm 5 m/s 758 mmHg 34%
13:00 +37°C° 0 mm 5 m/s 757 mmHg 33%
14:00 +37°C° 0 mm 5 m/s 757 mmHg 31%
15:00 +38°C° 0 mm 6 m/s 756 mmHg 32%
16:00 +36°C° 0 mm 6 m/s 756 mmHg 33%
17:00 +35°C° 0 mm 6 m/s 755 mmHg 34%
18:00 +34°C° 0 mm 5 m/s 756 mmHg 44%
19:00 +32°C° 0 mm 5 m/s 756 mmHg 53%
20:00 +30°C° 0 mm 4 m/s 757 mmHg 62%
21:00 +29°C° 0 mm 4 m/s 757 mmHg 66%
22:00 +29°C° 0 mm 4 m/s 757 mmHg 70%
23:00 +29°C° 0 mm 3 m/s 758 mmHg 74%

15 Aprilie, Joi

Timp Temperatura Precipitaţii Vânt Presiune Umiditate
00:00 +29°C° 0 mm 3 m/s 757 mmHg 74%
01:00 +28°C° 0 mm 3 m/s 757 mmHg 74%
02:00 +28°C° 0 mm 3 m/s 757 mmHg 75%
03:00 +28°C° 0 mm 3 m/s 757 mmHg 74%
04:00 +28°C° 0 mm 2 m/s 757 mmHg 74%
05:00 +28°C° 0 mm 2 m/s 758 mmHg 74%
06:00 +29°C° 0 mm 1 m/s 758 mmHg 67%
07:00 +30°C° 0 mm 1 m/s 758 mmHg 60%
08:00 +31°C° 0 mm 1 m/s 759 mmHg 54%
09:00 +32°C° 0 mm 2 m/s 759 mmHg 49%
10:00 +34°C° 0 mm 3 m/s 759 mmHg 44%
11:00 +35°C° 0 mm 5 m/s 759 mmHg 39%
12:00 +35°C° 0 mm 5 m/s 758 mmHg 40%
13:00 +35°C° 0 mm 5 m/s 757 mmHg 41%
14:00 +35°C° 0 mm 5 m/s 757 mmHg 41%
15:00 +35°C° 0 mm 6 m/s 757 mmHg 44%
16:00 +34°C° 0 mm 6 m/s 756 mmHg 46%
17:00 +33°C° 0 mm 6 m/s 756 mmHg 48%
18:00 +32°C° 0 mm 5 m/s 756 mmHg 56%
19:00 +30°C° 0 mm 5 m/s 757 mmHg 64%
20:00 +29°C° 0 mm 4 m/s 757 mmHg 72%
21:00 +29°C° 0 mm 4 m/s 757 mmHg 72%
22:00 +28°C° 0 mm 3 m/s 757 mmHg 71%
23:00 +28°C° 0 mm 3 m/s 757 mmHg 71%
Arată mai mult

Formular de consimțământ

Meteoprog și furnizorii noștri de servicii pot stoca și accesa date personale, precum cookies, identificatori de dispozitiv sau alte tehnologii similare pe dispozitivul dumneavoastră și procesa astfel de date pentru a personaliza conținutul și reclamele, dar și pentru a oferi caracteristici de social media și pentru a analiza traficul.

  • Stocarea și/sau accesarea informațiilor pe dispozitivul dumneavoastră

    Cookies, identificatori de dispozitiv sau alte informații pot fi stocate sau accesate pe dispozitiv în scopurile indicate mai sus.

  • Reclame și conținut personalizat, evaluarea reclamelor și a conținutului, informații despre audiențe și dezvoltarea produselor

    Reclamele și conținutul pot fi personalizate pe baza unui profil. Pot fi adăugate date suplimentare pentru a personaliza mai bine reclamele și conținutul. Performanța reclamelor și conținutului poate fi măsurată. Pot fi obținute informații despre utilizatorii care au văzut reclamele și conținutul. Aceste date pot fi utilizate pentru a dezvolta sau îmbunătăți experiența utilizatorilor, sistemele și software-ul.

Dând clic pe ‘Sunt de acord’, permiteți utilizarea cookie-urilor menționate, a identificatorilor de dispozitiv, balizelor web sau altor tehnologii similare. Setările pot fi modificate din browser-ul dispozitivului dumneavoastră.

În anumite scopuri, interesele legitime pot prima asupra consimțământului. Puteți citi mai multe informații în acest sens în Politica privind Confidențialitatea Datelor și Cookie.